Location: De Har
(53.3413°N, 6.6858°E)
Time: 20:56:12
(UTC+00:00)

SL-16 R/B - Pass Details

Date: 22 April 2026
Orbit: 985 x 1007 km, 99.8° (Epoch: 21 May)

Event Time Altitude Azimuth Distance (km) Brightness Sun altitude
Rises 02:13:59 0° 137° (SE) 3,726 5.5 -15.9°
Reaches altitude 10° 02:16:32 10° 131° (SE) 2,781 4.9 -15.7°
Maximum altitude 02:22:27 46° 61° (ENE) 1,331 3.7 -15.1°
Drops below altitude 10° 02:28:23 10° 350° (N) 2,795 5.4 -14.5°
Sets 02:30:57 0° 345° (NNW) 3,747 6.0 -14.2°
